Vorticity
11 18 11 7 8 10 14 12 10 12 9 9 5 8 14 10 12 15 12 9 7 2 7 16 -3 10 40 4 7 6 5 2 5 14 9 12 9 7 8 7 8 5 4
15 16 22 8 10 9 12 15 15 10 6 8 7 8 7 10 9 14 17 21 12 20 6 3 3 11 24 13 8 4 8 8 7 5 8 13 -18 9 8 8 8 7 7
15 12 17 11 13 11 15 11 13 11 10 10 7 7 8 8 7 16 13 12 13 12 10 19 11 8 12 6 7 6 3 8 19 12 3 3 21 19 8 7 7 7 8
19 12 13 19 9 13 12 11 9 10 10 10 8 9 9 10 9 6 10 15 12 14 12 13 13 -3 41 2 10 7 6 7 70 -1 8 11 2 10 10 9 8 8 6
10 7 10 15 15 8 15 11 11 12 10 10 11 10 9 10 10 10 10 7 12 16 13 17 5 9 -2 41 5 6 12 14 61 2 2 5 9 7 2 10 14 14 9
6 9 8 -1 20 12 8 14 10 9 10 8 10 10 13 13 9 6 9 11 8 7 13 21 8 8 28 21 12 8 19 6 -8 -18 3 5 2 -6 4 4 11 10 7
6 4 5 8 9 11 10 7 7 10 12 12 10 7 8 7 8 9 5 7 10 8 8 7 12 17 14 4 29 22 -1 35 -0 2 2 5 -2 17 8 16 9 6 5
4 5 1 3 3 6 6 6 8 8 13 10 10 12 11 9 6 8 5 3 7 8 5 8 7 3 11 12 27 26 34 31 26 26 6 8 1 8 41 20 12 14 5
-1 2 9 5 7 6 4 7 7 -1 0 4 6 8 15 6 8 7 6 5 2 9 6 8 10 7 5 11 12 5 10 9 21 -4 8 31 11 2 5 7 18 8 2
4 5 6 5 3 4 2 7 3 5 7 6 7 7 8 5 9 17 16 13 7 4 8 7 10 5 7 2 3 7 16 15 2 4 32 -10 4 9 6 6 -1 3 6
7 6 10 10 6 5 4 3 2 7 2 11 6 8 7 5 10 7 5 2 18 18 15 2 5 10 6 7 4 5 5 4 9 15 14 20 19 12 9 12 12 7 6
7 5 6 7 9 13 10 6 2 7 10 2 9 -1 3 2 -11 26 -6 14 7 -9 14 22 10 2 12 8 10 7 9 10 7 5 5 5 6 6 22 7 8 13 -2
6 6 2 5 9 6 13 48 14 12 -4 34 9 3 -1 4 -11 11 18 8 15 13 12 7 20 8 3 4 9 7 5 8 8 9 11 12 10 7 6 7 7 4 5
7 3 1 -3 8 14 13 23 3 44 -53 68 7 2 -0 -5 8 -5 -2 4 6 8 5 8 22 31 11 10 8 12 5 11 7 9 8 8 10 11 16 13 10 7 9
6 7 3 1 15 1 13 6 6 -2 1 7 11 90 -52 23 23 30 12 13 1 1 10 5 6 44 17 8 7 8 5 8 5 6 6 5 5 5 6 6 7 9 10
7 6 -2 18 9 19 16 12 6 12 14 12 9 26 16 13 14 58 28 15 6 12 5 11 8 29 21 -0 7 -2 6 5 4 2 4 6 6 7 8 6 8 9 10
7 9 21 18 15 18 10 21 29 23 27 37 18 11 6 18 24 22 30 14 3 13 6 10 15 14 35 17 10 2 -2 -1 4 3 4 9 8 5 9 7 8 10 13
3 14 9 11 16 17 21 17 19 29 46 24 10 14 5 10 3 6 2 10 6 5 12 17 5 -1 7 25 33 25 14 15 1 6 10 3 10 9 9 10 8 8 10
13 6 9 18 17 14 15 13 12 10 10 17 16 7 10 10 -0 12 11 10 9 7 8 10 15 15 4 24 12 7 9 12 12 23 19 1 12 7 8 10 5 9 8
11 15 21 23 16 12 7 12 12 12 10 10 14 15 13 9 8 9 8 11 12 13 8 12 11 20 11 9 10 4 10 7 15 14 6 9 23 13 9 5 9 5 11
23 17 15 22 12 6 8 8 8 8 9 10 13 14 16 13 10 9 8 5 6 11 6 7 7 9 8 13 18 29 -6 29 -21 32 20 17 26 14 2 -1 -9 -3 10
13 13 14 13 14 15 12 9 8 10 9 7 8 6 7 8 10 11 13 13 12 12 10 11 8 6 5 17 15 16 -8 20 34 73 -5 -3 12 40 7 12 26 12 2
14 14 12 8 6 6 9 10 11 11 11 13 12 8 6 7 8 8 8 8 8 8 9 10 11 11 10 9 14 17 10 8 7 17 18 36 27 32 7 5 7 6 4
9 9 8 8 9 9 10 13 14 8 3 3 5 7 6 7 9 11 11 9 7 7 7 4 4 6 7 10 9 5 5 14 13 6 6 19 13 3 25 40 -8 55 51
8 8 8 7 12 14 9 5 5 5 6 8 9 11 11 9 8 11 8 8 7 10 4 11 11 7 9 23 6 6 13 11 14 14 12 10 11 14 23 5 32 8 -19
7 13 17 12 8 6 6 8 10 12 12 13 11 9 9 11 8 6 7 8 6 5 4 7 3 7 17 0 5 17 14 15 12 11 17 8 2 10 10 17 19 17 13
Height
5879 5878 5877 5876 5875 5875 5876 5875 5875 5875 5874 5875 5875 5875 5875 5875 5875 5875 5876 5878 5879 5880 5881 5881 5883 5883 5882 5885 5888 5890 5892 5894 5885 5899 5901 5900 5903 5909 5911 5910 5916 5917 5917
5876 5874 5874 5873 5872 5872 5873 5873 5872 5873 5873 5873 5874 5873 5873 5872 5873 5873 5872 5872 5874 5875 5876 5877 5878 5878 5879 5880 5882 5886 5888 5890 5891 5892 5895 5897 5897 5901 5906 5906 5910 5912 5913
5874 5873 5871 5871 5871 5870 5870 5870 5870 5871 5871 5872 5871 5871 5870 5870 5870 5869 5869 5868 5869 5870 5871 5872 5874 5875 5876 5875 5878 5880 5881 5876 5866 5879 5887 5894 5892 5895 5896 5902 5905 5907 5909
5872 5871 5869 5869 5869 5869 5869 5867 5867 5867 5867 5868 5868 5868 5868 5869 5869 5867 5866 5865 5864 5865 5865 5866 5868 5870 5870 5870 5873 5877 5878 5881 5866 5879 5887 5887 5890 5892 5892 5897 5902 5903 5905
5872 5870 5868 5867 5867 5866 5865 5865 5865 5865 5864 5864 5864 5864 5865 5866 5866 5865 5865 5863 5862 5861 5861 5862 5862 5863 5863 5865 5869 5872 5871 5874 5872 5876 5880 5886 5886 5887 5892 5894 5896 5897 5897
5872 5870 5868 5867 5866 5864 5864 5863 5862 5862 5861 5861 5861 5862 5862 5863 5863 5861 5861 5860 5860 5860 5859 5858 5857 5858 5858 5859 5861 5864 5866 5867 5867 5872 5877 5880 5881 5882 5885 5886 5889 5890 5894
5871 5870 5868 5866 5864 5863 5862 5861 5860 5859 5858 5858 5858 5858 5858 5859 5858 5857 5855 5855 5854 5855 5855 5854 5853 5853 5854 5853 5853 5855 5858 5861 5862 5866 5870 5873 5875 5875 5877 5880 5882 5885 5889
5869 5868 5866 5865 5863 5861 5860 5859 5858 5857 5855 5854 5854 5854 5855 5854 5854 5855 5854 5853 5851 5850 5850 5850 5850 5849 5849 5849 5848 5850 5850 5853 5856 5860 5863 5867 5870 5872 5873 5876 5878 5878 5878
5864 5863 5862 5861 5859 5858 5857 5856 5854 5853 5853 5852 5850 5850 5849 5849 5849 5849 5850 5851 5851 5848 5845 5845 5845 5845 5846 5847 5847 5846 5846 5846 5851 5856 5859 5861 5865 5868 5870 5872 5873 5874 5875
5858 5856 5856 5856 5854 5854 5853 5852 5849 5847 5846 5845 5844 5844 5843 5843 5843 5843 5843 5843 5845 5847 5846 5842 5840 5839 5840 5841 5842 5843 5844 5846 5850 5852 5855 5857 5859 5861 5863 5864 5866 5867 5868
5851 5849 5849 5849 5848 5847 5845 5842 5840 5839 5838 5838 5838 5836 5836 5835 5834 5835 5834 5834 5836 5840 5840 5840 5837 5836 5835 5836 5835 5836 5837 5840 5843 5845 5848 5849 5851 5853 5855 5857 5859 5860 5863
5844 5843 5842 5840 5839 5837 5835 5832 5828 5825 5824 5824 5828 5829 5828 5828 5826 5825 5825 5825 5825 5827 5833 5834 5833 5830 5831 5833 5833 5832 5833 5835 5837 5839 5841 5842 5844 5847 5848 5849 5852 5854 5855
5835 5835 5835 5831 5828 5824 5819 5809 5807 5810 5814 5814 5811 5815 5817 5818 5818 5816 5816 5816 5815 5816 5818 5823 5825 5823 5823 5824 5826 5827 5828 5828 5829 5831 5833 5835 5836 5837 5839 5841 5842 5843 5846
5825 5826 5826 5825 5821 5816 5813 5804 5804 5804 5797 5804 5798 5801 5805 5808 5807 5809 5807 5806 5807 5807 5808 5810 5812 5812 5813 5814 5816 5818 5819 5821 5821 5823 5824 5825 5825 5827 5831 5832 5833 5831 5834
5818 5817 5816 5816 5812 5809 5805 5800 5797 5797 5800 5798 5795 5790 5791 5797 5795 5794 5797 5797 5799 5798 5800 5802 5801 5800 5800 5802 5804 5806 5808 5809 5811 5811 5813 5815 5816 5815 5819 5821 5821 5822 5821
5808 5808 5806 5803 5801 5799 5795 5791 5786 5786 5784 5783 5785 5786 5786 5784 5781 5778 5780 5787 5791 5792 5791 5792 5792 5789 5789 5790 5792 5794 5796 5797 5800 5802 5803 5803 5805 5805 5808 5807 5809 5807 5809
5797 5798 5796 5792 5790 5788 5785 5782 5778 5773 5771 5771 5774 5776 5778 5776 5776 5774 5775 5780 5784 5785 5783 5781 5781 5782 5781 5780 5780 5782 5785 5786 5788 5789 5790 5791 5792 5794 5795 5796 5796 5795 5796
5787 5786 5785 5782 5779 5778 5775 5771 5768 5764 5763 5764 5766 5767 5768 5770 5771 5772 5774 5774 5773 5774 5776 5774 5773 5771 5770 5768 5769 5769 5770 5772 5775 5773 5775 5776 5777 5778 5780 5781 5781 5781 5782
5777 5776 5773 5772 5770 5769 5768 5765 5762 5759 5758 5760 5759 5761 5763 5765 5765 5765 5766 5765 5765 5765 5764 5763 5762 5761 5760 5758 5759 5759 5759 5760 5761 5760 5761 5762 5762 5764 5766 5767 5768 5769 5769
5766 5764 5763 5762 5762 5761 5759 5756 5755 5755 5755 5756 5757 5757 5757 5756 5756 5756 5757 5756 5756 5756 5755 5753 5752 5750 5748 5746 5746 5746 5749 5748 5747 5746 5745 5745 5746 5749 5751 5752 5752 5754 5755
5754 5754 5753 5754 5753 5753 5751 5751 5750 5751 5751 5751 5752 5751 5751 5750 5749 5748 5748 5749 5750 5748 5746 5745 5742 5740 5739 5737 5735 5735 5735 5734 5733 5735 5730 5731 5732 5733 5735 5736 5737 5739 5739
5747 5746 5747 5747 5747 5746 5746 5745 5744 5744 5745 5745 5744 5744 5743 5743 5742 5742 5742 5741 5740 5738 5738 5736 5734 5731 5728 5727 5727 5725 5725 5722 5721 5721 5721 5720 5720 5720 5720 5721 5723 5724 5725
5739 5739 5739 5739 5739 5738 5739 5738 5738 5738 5738 5738 5738 5737 5736 5735 5734 5733 5732 5730 5729 5728 5726 5724 5723 5722 5719 5718 5716 5716 5713 5712 5710 5709 5708 5709 5709 5709 5707 5707 5708 5709 5710
5733 5733 5733 5733 5732 5732 5732 5732 5731 5730 5729 5729 5727 5726 5726 5725 5724 5724 5722 5721 5720 5719 5719 5716 5713 5711 5709 5707 5704 5702 5700 5701 5700 5699 5697 5695 5695 5695 5696 5696 5696 5695 5695
5726 5725 5726 5726 5725 5725 5725 5724 5723 5721 5720 5719 5719 5718 5716 5715 5715 5714 5713 5711 5710 5708 5705 5702 5700 5697 5696 5693 5691 5689 5687 5686 5685 5683 5682 5682 5681 5680 5682 5682 5682 5682 5684
5718 5718 5719 5718 5718 5718 5717 5716 5715 5713 5712 5711 5709 5708 5707 5704 5701 5698 5697 5694 5692 5691 5690 5689 5687 5684 5682 5680 5677 5674 5671 5670 5669 5668 5669 5669 5668 5668 5668 5668 5667 5667 5668